View from above orbital plane
|
View from above satellite
|
Ground track
|
The orbit data is extracted from the following two-line orbital elements,
1 26387U 00033D 13169.19896736 .00000219 00000-0 48133-4 0 2304
2 26387 098.1527 234.9337 0025959 282.9487 138.9781 14.66742643693728
| Epoch (UTC): | 18 June 2013 04:46:30 |
| Eccentricity: | 0.0025959 |
| inclination: | 98.1527° |
| perigee height: | 653 km |
| apogee height: | 690 km |
| right ascension of ascending node: | 234.9337° |
| argument of perigee: | 282.9487° |
| revolutions per day: | 14.66742643 |
| mean anomaly at epoch: | 138.9781° |
| orbit number at epoch: | 69372 |
The dashed part of the orbit path shows where the satellite is in the earth's shadow,
|
|